Wind_Speed
16 10 4 21 25 21 12 13 9 10 9 23 22 20 15 16 17 19 17 16 14 11 11 16 12 13 16 20 23 18 11 7 5 8 10 13 14 12 11 4 4 5 4 5
10 15 24 25 29 37 2 6 8 12 9 14 12 15 15 14 15 17 17 18 18 16 16 13 15 17 18 25 23 19 18 15 12 12 12 4 10 4 10 5 4 2 4 1
11 11 20 24 29 4 3 2 5 8 7 4 7 7 14 12 13 14 16 16 18 17 16 16 16 20 21 27 25 24 20 18 17 14 10 4 6 7 7 8 10 7 7 4
7 11 18 26 13 8 2 6 7 5 11 6 17 2 6 7 12 13 14 16 15 19 17 12 20 19 22 28 26 26 22 18 15 14 11 7 5 8 10 11 4 16 12 8
14 21 21 18 3 10 7 14 7 25 19 5 5 6 9 11 14 14 15 16 16 18 22 20 18 23 21 24 27 28 27 25 18 19 15 7 8 12 10 9 5 16 13 14
20 19 31 12 7 6 7 7 28 13 9 5 15 9 6 6 16 20 19 18 16 15 16 19 20 13 11 17 24 27 32 26 21 16 16 16 10 14 9 3 11 4 9 13
18 16 15 11 10 12 22 19 7 7 5 4 15 5 8 22 20 21 20 19 19 16 11 12 17 23 25 18 13 21 29 24 21 19 18 16 19 12 11 9 10 9 5 11
12 15 17 14 14 9 12 15 7 8 6 14 18 4 8 7 10 1 12 18 2 7 15 13 11 13 16 20 18 22 29 24 21 19 19 19 17 16 16 14 14 7 10 5
12 9 10 8 11 15 7 6 17 12 20 8 4 14 7 7 8 4 20 19 12 17 20 10 4 11 11 14 12 14 26 22 19 18 19 19 19 20 17 17 17 14 10 12
9 6 11 13 14 13 12 10 6 9 3 6 10 16 9 10 6 7 18 18 24 30 11 4 23 20 19 18 15 14 24 23 21 20 24 21 21 22 23 15 14 12 14 13
7 5 7 7 19 21 13 12 12 14 4 4 8 5 13 9 9 11 11 12 14 10 22 23 22 11 15 13 16 20 19 23 26 22 24 22 23 22 21 21 17 20 18 14
11 9 5 23 29 22 12 10 12 10 4 12 11 7 14 13 12 12 12 11 10 6 6 5 5 5 6 8 17 16 24 20 26 25 21 24 21 22 21 22 22 22 22 20
9 12 4 10 14 8 7 12 10 15 7 14 6 8 11 11 12 13 12 10 7 7 4 0 3 2 2 3 9 15 9 6 14 21 20 19 21 20 21 22 23 24 24 24
3 13 10 6 13 19 12 4 7 13 7 12 8 12 10 12 13 13 14 11 10 9 8 7 7 10 12 11 11 9 6 3 3 10 17 17 18 20 20 21 22 23 25 25
6 8 7 3 12 18 18 8 4 7 5 4 12 11 4 12 13 12 13 12 12 11 11 10 8 6 6 6 6 4 3 3 5 9 8 9 15 11 12 20 13 19 18 25
14 4 7 4 10 18 19 13 7 9 5 19 14 9 17 20 15 14 12 11 12 11 11 10 9 9 9 8 7 5 3 3 2 6 8 8 5 6 7 7 7 12 11 14
14 9 5 3 6 18 13 12 7 9 19 27 15 7 6 13 9 15 14 12 12 11 10 9 9 10 11 9 9 7 4 4 3 3 3 3 3 4 6 6 7 8 7 14
13 13 6 8 12 4 7 3 8 9 22 20 26 30 27 24 14 15 14 13 12 11 9 10 12 12 10 9 9 9 8 7 7 9 7 6 5 4 4 3 4 3 7 7
13 11 4 8 8 6 14 4 2 4 12 25 26 28 28 24 18 16 16 14 13 12 11 13 13 10 10 10 9 9 9 7 8 8 6 5 3 3 1 1 2 4 6 9
10 14 7 7 10 7 7 12 9 2 3 12 17 21 25 21 13 11 16 16 14 14 14 13 15 17 10 12 9 15 11 12 9 8 6 5 4 3 3 3 2 3 6 9
8 8 12 7 7 10 9 6 6 7 4 5 21 15 35 12 6 18 15 14 16 14 13 9 10 14 9 12 11 12 12 10 8 6 5 3 2 2 3 2 2 3 6 8
6 5 9 9 12 9 8 4 5 7 14 13 24 15 28 14 17 17 15 13 13 14 7 10 12 13 11 8 13 12 9 7 5 4 4 4 3 5 4 4 5 6 7 10
4 6 8 11 5 7 6 7 4 9 10 16 33 34 15 16 15 13 11 11 10 12 5 10 16 13 12 5 8 13 7 6 5 5 3 2 2 1 2 4 4 9 7 8
8 6 3 1 10 6 9 6 4 3 6 5 7 15 13 16 17 15 12 11 10 13 10 8 14 15 10 7 5 9 7 6 4 4 3 3 2 1 3 7 7 9 10 11
3 6 3 1 9 6 2 2 5 4 4 10 7 7 9 13 14 12 11 10 11 14 13 13 10 6 10 6 2 5 6 4 4 3 4 6 8 3 5 3 1 1 2 1
5 3 5 2 8 5 6 2 5 4 3 4 7 8 11 10 8 8 8 9 14 14 16 11 6 6 2 2 2 3 5 3 5 8 9 7 3 8 5 5 6 6 7 6
Wind_Direction
257 63 323 254 224 227 187 192 168 118 181 152 164 184 162 182 187 174 174 181 184 198 182 169 200 155 150 148 156 169 177 201 176 171 193 220 227 228 258 284 282 177 71 56
231 101 236 261 249 246 240 85 153 129 190 179 143 145 159 180 194 181 187 186 179 184 180 192 182 169 175 156 162 168 183 190 193 220 248 226 325 188 247 255 223 184 108 148
263 161 243 250 284 97 70 152 197 178 179 41 135 147 155 184 190 190 190 200 185 175 179 174 199 178 180 160 169 175 183 189 193 229 252 227 264 298 292 253 227 191 186 176
144 166 263 271 267 63 313 300 198 183 66 360 357 327 321 188 200 194 201 201 197 171 178 178 188 192 185 162 171 174 181 187 199 217 242 223 215 266 274 225 288 191 180 180
252 192 217 245 128 117 215 255 78 93 81 41 340 60 278 302 274 197 206 202 200 177 172 187 188 185 194 174 174 176 179 183 196 199 216 224 244 253 234 133 203 188 179 188
260 77 262 268 337 255 305 325 58 89 103 189 189 180 268 225 223 194 195 201 207 192 170 183 178 140 269 196 184 177 176 183 191 193 209 218 230 244 281 272 218 228 210 218
264 234 264 255 269 252 102 62 28 17 209 157 130 168 202 219 230 195 189 197 187 187 194 181 186 166 190 155 181 177 163 170 183 199 204 217 218 233 239 260 258 245 308 217
218 241 228 236 236 267 80 114 123 220 232 145 156 77 89 90 98 351 210 166 135 183 187 185 201 191 176 158 175 145 159 166 180 194 205 211 216 221 226 238 239 246 253 238
238 248 295 284 282 241 141 112 215 211 246 82 46 360 83 62 60 99 95 103 68 324 290 25 255 190 173 172 180 178 158 164 181 197 204 208 210 214 219 232 229 251 254 253
267 327 311 298 312 288 285 309 256 234 304 116 126 175 218 110 78 102 117 132 151 204 126 50 269 215 185 187 182 202 166 172 189 202 195 202 207 216 221 227 224 222 240 236
196 4 273 299 276 267 222 238 248 266 259 131 153 100 111 120 112 109 115 139 170 152 166 183 227 202 183 170 190 192 194 187 184 196 191 200 206 211 221 224 229 228 230 237
161 243 220 213 237 242 249 249 267 268 220 72 109 108 113 134 119 98 100 109 111 84 84 134 154 201 238 219 196 205 192 194 187 187 194 201 206 210 214 223 228 225 227 225
230 199 129 278 238 221 265 256 252 281 299 40 83 129 123 115 119 113 113 116 120 117 99 127 143 54 102 314 357 17 175 168 190 176 184 194 204 215 221 224 226 231 228 231
344 81 91 330 289 309 292 245 267 273 64 83 87 128 123 125 125 118 111 113 114 106 88 61 49 40 36 28 16 8 6 199 230 195 196 209 216 215 230 237 233 229 229 230
241 78 3 230 278 302 279 305 176 259 84 106 164 125 203 135 133 129 126 129 126 114 103 107 102 93 74 49 32 20 235 299 240 227 274 226 222 229 241 244 251 243 235 231
238 121 154 266 251 262 262 234 274 316 299 105 160 64 14 331 132 136 130 123 116 112 109 115 120 113 98 103 99 80 49 16 254 176 213 243 251 277 278 282 284 257 261 254
247 111 39 285 242 282 233 256 248 238 103 133 135 155 355 294 191 148 145 141 130 117 106 93 83 71 80 80 66 72 78 80 119 134 111 103 165 227 247 261 262 257 248 252
277 120 117 203 74 320 345 32 353 6 136 125 137 145 171 225 178 160 150 144 134 127 128 131 130 134 115 90 92 97 85 92 96 83 71 66 54 45 37 14 330 329 317 312
286 288 28 327 185 241 200 140 25 46 89 134 150 168 189 217 152 151 146 155 140 127 131 123 115 110 106 116 130 110 101 77 86 96 102 116 139 163 151 264 285 303 304 311
272 289 291 288 329 304 61 289 355 199 175 338 51 7 236 149 164 157 152 139 140 136 128 128 145 142 125 151 115 111 93 104 100 93 87 81 73 61 42 30 9 336 315 301
225 265 283 253 251 292 129 66 324 273 203 178 76 71 274 178 197 143 140 138 142 124 126 113 104 107 125 87 97 79 103 101 104 107 101 97 93 132 105 56 341 313 306 303
213 234 249 264 284 254 37 1 34 94 154 162 109 218 249 122 124 132 139 138 121 115 146 141 132 119 104 108 113 107 117 123 115 102 90 76 48 19 50 355 330 308 295 302
274 248 234 245 84 85 61 104 43 51 122 167 153 206 194 125 125 130 134 128 134 142 150 96 115 97 105 94 110 119 138 136 132 123 126 122 92 7 306 264 276 299 262 293
235 327 13 151 119 95 58 44 47 191 140 203 146 126 143 146 149 149 142 155 162 157 141 108 93 109 111 127 126 135 154 161 167 144 161 177 186 174 336 359 23 9 18 359
349 168 259 132 113 88 85 41 94 76 29 32 55 125 150 146 144 143 162 175 169 129 120 117 115 135 136 125 131 130 151 177 198 198 230 238 210 165 237 219 221 176 296 302
169 167 211 306 131 129 119 140 140 111 101 59 42 47 45 42 76 108 95 108 113 114 98 102 109 125 101 137 184 218 164 190 240 234 243 251 298 222 199 323 214 229 229 229
Height
743 796 815 787 789 778 741 750 761 751 744 765 785 781 773 767 767 773 778 780 783 784 784 788 793 797 803 810 818 823 827 829 832 835 835 834 834 832 830 834 837 841 834 831
758 822 797 777 768 768 733 750 759 743 738 760 758 766 766 765 764 764 770 772 774 778 780 786 789 794 799 807 814 820 825 828 831 833 833 834 833 832 831 829 830 831 831 833
758 789 767 767 746 738 737 750 754 753 745 743 758 772 771 762 758 759 760 761 762 769 775 780 786 789 795 802 809 814 820 825 828 830 832 832 832 832 831 830 829 830 832 833
757 747 748 745 753 736 758 730 733 747 789 827 780 826 798 770 768 762 762 760 758 762 768 775 780 784 789 796 803 808 814 820 824 827 829 829 831 831 831 828 824 827 828 830
746 753 750 740 732 731 751 733 738 769 821 851 833 844 817 801 793 767 761 757 754 754 761 769 772 777 782 788 795 802 807 813 820 823 826 828 829 829 828 827 827 822 825 825
731 746 741 722 715 717 717 732 776 802 822 858 818 830 823 807 779 755 751 751 751 750 754 760 768 775 779 786 790 795 801 809 814 818 821 824 827 827 827 825 822 829 817 833
738 733 719 712 731 714 734 768 839 859 826 828 797 803 772 759 746 737 743 743 745 749 754 757 763 771 775 781 786 792 798 806 810 814 818 820 823 824 824 824 823 822 825 820
761 764 727 710 725 734 760 776 850 870 836 806 815 787 772 736 728 730 726 733 748 750 754 760 762 765 770 776 781 788 796 802 806 811 814 818 820 822 822 822 824 826 822 810
748 751 715 710 708 714 778 771 754 779 762 771 813 815 757 744 744 736 742 759 770 779 774 768 765 767 771 774 780 785 792 797 803 807 811 814 816 819 820 820 823 824 822 810
732 769 741 721 712 706 720 713 755 742 783 810 841 852 802 764 760 746 747 759 773 777 782 780 770 764 769 771 776 783 787 793 799 803 806 809 812 813 815 817 820 822 819 815
724 763 761 738 737 734 724 733 725 719 732 781 799 789 750 761 752 750 746 745 751 750 767 769 764 759 763 767 772 777 782 787 792 797 801 805 807 809 811 813 815 819 818 815
720 770 775 760 720 697 699 714 712 738 750 742 759 786 737 745 741 744 749 748 750 751 752 754 757 760 762 764 768 772 777 781 787 792 798 802 806 807 808 808 810 813 815 816
714 736 789 753 721 704 718 710 708 707 709 760 763 784 739 741 744 745 753 755 755 755 757 756 758 760 763 767 771 774 775 780 785 788 793 798 801 804 805 805 806 808 810 812
714 740 776 784 772 740 732 716 709 711 737 768 785 780 761 755 756 755 756 758 760 761 762 764 767 770 772 774 776 778 778 780 785 788 790 794 798 800 802 802 802 803 805 807
715 756 751 753 744 737 726 715 713 720 723 750 779 776 772 757 760 760 757 759 762 762 764 768 773 776 778 780 780 781 782 784 786 788 791 793 795 797 798 799 799 799 801 802
707 762 752 763 747 733 729 713 711 712 712 752 764 782 786 793 750 756 761 765 768 768 768 770 774 777 780 782 784 785 786 786 788 789 792 793 794 795 795 797 797 798 799 800
715 748 782 787 768 759 743 719 711 710 711 743 769 798 791 782 761 758 763 769 771 771 772 775 779 782 785 787 788 788 790 790 790 791 793 794 795 796 796 797 798 797 797 798
716 750 798 793 771 817 723 696 702 711 731 736 763 768 768 758 748 752 757 768 771 770 772 775 779 783 786 788 790 791 792 793 794 795 796 796 797 797 798 799 799 799 798 799
700 712 737 756 757 732 720 711 718 727 752 762 771 772 765 757 746 757 754 763 767 770 771 775 780 784 787 789 791 792 794 795 795 796 798 799 799 799 800 800 800 800 799 799
707 706 729 741 765 768 740 730 700 708 759 749 764 776 766 742 773 766 756 759 764 768 770 774 778 782 785 787 789 791 794 796 798 800 800 800 800 800 800 801 800 800 800 799
732 734 745 743 756 739 716 707 702 750 770 758 765 796 792 756 742 751 757 756 760 768 770 774 776 781 786 787 791 793 796 798 800 801 801 801 801 802 802 802 801 801 800 798
736 750 748 744 755 763 708 713 738 726 731 753 781 797 785 746 748 752 756 755 763 770 772 773 776 781 785 789 791 795 798 799 800 800 801 801 801 801 802 802 801 800 799 797
745 727 735 731 743 718 710 714 710 712 725 742 776 760 743 743 750 756 759 759 765 769 770 772 778 783 787 790 791 795 798 799 800 801 802 802 802 802 801 801 800 797 797 796
720 711 723 729 723 718 714 710 709 713 720 721 722 727 731 741 746 751 753 759 763 766 771 775 779 785 790 793 794 795 798 799 800 801 801 801 801 801 801 799 799 798 797 797
725 717 726 727 723 722 718 715 714 719 721 722 721 723 726 730 737 741 748 754 757 765 771 776 781 785 788 792 794 795 797 799 799 800 800 799 799 799 799 799 799 799 798 798
711 723 734 735 718 724 725 718 717 723 724 725 726 728 730 732 737 743 749 754 760 767 773 778 782 786 788 791 792 794 796 798 798 798 798 798 797 797 797 798 797 797 797 796